Regional Weather Roundup
Issued by NWS Columbia, SC

Home | Current Version | Previous Version | Text Only | Print | Product List | Glossary On
Versions: 1 2 3 4 5 6 7 8 9 10 11 12 13 14 15 16 17 18 19 20 21 22 23 24 25 26 27 28 29 30 31 32 33 34 35 36 37 38 39 40 41 42 43 44 45 46 47 48 49 50
000
ASUS42 KCAE 140310
RWRCAE
REGIONAL WEATHER ROUNDUP
NATIONAL WEATHER SERVICE COLUMBIA SC
1100 PM EDT SUN JUL 13 2014

NOTE: "FAIR" INDICATES FEW OR NO CLOUDS BELOW 12,000 FEET WITH NO
SIGNIFICANT WEATHER AND/OR OBSTRUCTIONS TO VISIBILITY.

NOT ALL STATIONS ARE QUALITY CONTROLLED BY THE NATIONAL
WEATHER SERVICE. USE DATA WITH CAUTION...ESPECIALLY
DEWPOINT OBSERVATIONS.

SCZ001>056-GAZ040-063>065-077-140400-
...UPSTATE SOUTH CAROLINA...

CITY           SKY/WX    TMP DP  RH WIND       PRES   REMARKS
ANDERSON       PTCLDY    79  68  69 CALM      30.06S
LIBERTY        FAIR      73  32  22 MISG      30.07S
SPARTANBURG    FAIR      79  70  73 CALM      30.05S
CLEMSON        PTCLDY    82  63  52 W3        30.07S
GREENVILLE     PTCLDY    82  65  56 SW5       30.08S
GREENWOOD      MOCLDY    79  66  64 CALM      30.07S
GREER          PTCLDY    80  67  64 SW5       30.05S
ROCK HILL      PTCLDY    75  68  78 S5        30.05F
CHESTER        FAIR      79  68  69 SW3       30.06S
LAURENS        FAIR      79  64  61 CALM      30.06S


...CENTRAL SOUTH CAROLINA...

CITY           SKY/WX    TMP DP  RH WIND       PRES   REMARKS
COLUMBIA APT   PTCLDY    82  71  69 S6        30.05R
COLUMBIA OWENS PTCLDY    81  71  71 S6        30.07R
DARLINGTON     CLEAR     79  70  73 S8        30.07R
FLORENCE       CLEAR     78  72  81 S5        30.06R
MCENTIRE ANGB  CLEAR     77  71  82 SE2       30.06S
ORANGEBURG     PTCLDY    78  71  79 S6        30.07R
SUMTER SHAW    CLEAR     78  73  84 S2        30.05R
NEWBERRY       FAIR      77  70  78 S5        30.08S
AIKEN          FAIR      81  73  78 S10       30.10S
BARNWELL       FAIR      79  73  83 S5        30.07S
MANNING        FAIR      81  77  89 SW5       30.07S
CAMDEN         FAIR      79  72  78 S5        30.07R
LANCASTER      MIX PCPN  77  72  83 S6        30.05F
WINNSBORO      FAIR      79  70  73 S8        30.06S


...EASTERN AND COASTAL SOUTH CAROLINA...

CITY           SKY/WX    TMP DP  RH WIND       PRES   REMARKS
MYRTLE BEACH   MOCLDY    79  72  78 S6        30.07R
N MYRTLE BCH   PTCLDY    80  72  76 S12       30.06S
CONWAY         FAIR      73  73 100 CALM      30.07S
MARION         FAIR      77  72  83 CALM      30.07R
HARTSVILLE     FAIR      79  59  50 S3        30.07S
FLORENCE       CLEAR     78  72  81 S5        30.06R
DARLINGTON     CLEAR     79  70  73 S8        30.07R
CHARLESTON APT PTCLDY    76  72  87 S3        30.08R
MOUNT PLEASANT FAIR      73  73 100 CALM      30.08S
WALTERBORO     MOCLDY    77 N/A N/A CALM      30.08S
BEAUFORT       PTCLDY    80  75  84 SW5       30.07S


...EASTERN GEORGIA...

CITY           SKY/WX    TMP DP  RH WIND       PRES   REMARKS
AUGUSTA BUSH F PTCLDY    79  72  79 SE7       30.05R
AUGUSTA DANIEL PTCLDY    81  72  74 SE6       30.07R
THOMSON        PTCLDY    77  74  91 CALM      30.11R
WASHINGTON     FAIR      81  73  78 SW3       30.06S
CLAXTON        FAIR      79  77  94 CALM      30.08S
SYLVANIA       CLEAR     77  76  96 CALM      30.09S
STATESBORO     CLEAR     77  77 100 S7        30.08S
SAVANNAH       MOCLDY    78  74  87 CALM      30.09R


...SOUTHERN NORTH CAROLINA...

CITY           SKY/WX    TMP DP  RH WIND       PRES   REMARKS
CHARLOTTE      CLOUDY    81  66  60 S5        30.05F
MONROE         PTCLDY    78  64  61 S3        30.04F
WADESBORO      PTCLDY    81  70  71 S6        30.04S
ROCKINGHAM       N/A     81  72  74 S6        30.05S
RUTHERFORDTON  PTCLDY    75  75  98 CALM      30.07F FOG
ASHEVILLE      PTCLDY    74  68  81 SE3       30.14S

$$



USA.gov is the U.S. government's official web portal to all federal, state and local government web resources and services.